Current weather by "City, St" or "zip code"  
 

Current Conditions: Bennington Morse State Airport, VT

Partly Cloudy


71.0 F

Last Updated on Oct 21 2021, 1:54 pm EDT
Humidity: 49%
Wind Speed: W 3.5 mph
Barometer 29.91 in
Dewpoint: 51.1 F
Visibility: 10.00 mi
Precip: --
Heat Index: NA
Wind Chill: NA
Current conditions at:

Bennington Morse State Airport, VT (KDDH)

Lat: 42.89355 Lon: 73.2486

Local Radar Image active severe weather and emergency alerts image image weather storm and storm spotter reports image weather observation monitoring service image
Local
Radar
Active
Alerts
Storm Reports Obs
Monitoring

Sign-up For Email & Text Message Weather Alert Notification Services



Advertise Here

Observation History for Bennington Morse State Airport, VT


Time Wind
(mph)
Vis
(mi)
Weather Precip (in) Temperature (F) Relative
Humidity
Wind
Chill
(F)
Heat
Index
(F)
Pressure
Air Dwpt altimeter
(in)
sea level
(mb)
Rmks
1:54 pm EDT W 3.5 10.00 Partly Cloudy -- 71.0 51.1 49% NA NA 29.91 1012.4
12:54 pm EDT SW 8.1 10.00 Mostly Cloudy -- 70.0 51.1 51% NA NA 29.93 1013.2
11:54 am EDT S 5.8 10.00 Partly Cloudy -- 67.0 50.0 55% NA NA 29.96 1014.1
10:54 am EDT N 0.0 10.00 A Few Clouds -- 63.0 53.1 70% NA NA 29.97 1014.6
9:54 am EDT N 3.5 10.00 Partly Cloudy -- 59.0 52.0 78% NA NA 29.98 1015.2
8:54 am EDT SE 5.8 10.00 Overcast -- 57.0 51.1 81% 56 NA 29.99 1015.4
7:54 am EDT N 0.0 10.00 A Few Clouds Trace 50.0 48.0 93% NA NA 29.99 1015.5
6:54 am EDT N 0.0 10.00 A Few Clouds -- 49.0 46.9 93% NA NA 29.98 1015.2
5:54 am EDT N 0.0 10.00 Fair -- 49.0 46.9 93% NA NA 29.99 1015.4
4:54 am EDT S 3.5 10.00 Fair -- 49.0 46.0 90% NA NA 29.99 1015.4
3:54 am EDT S 4.6 10.00 Partly Cloudy -- 50.0 46.9 89% 48 NA 29.98 1015.1
2:54 am EDT SW 5.8 10.00 Overcast -- 58.0 48.0 70% 57 NA 29.99 1015.4
1:54 am EDT SW 5.8 10.00 Overcast -- 59.0 48.0 67% 58 NA 29.99 1015.3
12:54 am EDT SW 5.8 10.00 Overcast -- 60.0 48.0 65% 60 NA 30.00 1015.6
11:54 pm EDT SW 5.8 10.00 Overcast -- 61.0 46.9 60% 61 NA 30.00 1015.4
10:54 pm EDT SW 6.9 10.00 Overcast -- 61.0 48.9 65% 60 NA 30.00 1015.6
9:54 pm EDT SW 6.9 10.00 Overcast Trace 62.0 50.0 65% 62 NA 29.99 1015.4
8:54 pm EDT 5.8 10.00 Light Rain Trace 63.0 48.9 60% 63 NA 29.99 1015.5
7:54 pm EDT SW 6.9 10.00 Mostly Cloudy -- 64.0 46.9 54% NA NA 29.98 1015.2
6:54 pm EDT 4.6 10.00 Partly Cloudy -- 64.0 46.9 54% NA NA 29.96 1014.5
5:54 pm EDT SW 10.4 10.00 Mostly Cloudy -- 66.0 48.9 54% NA NA 29.94 1013.9
4:54 pm EDT SW 10.4 10.00 Fair -- 69.0 50.0 51% NA NA 29.94 1013.6
3:54 pm EDT 4.6 10.00 Fair -- 70.0 52.0 53% NA NA 29.94 1013.7
2:54 pm EDT SW 6.9 10.00 Mostly Cloudy -- 69.0 53.1 57% NA NA 29.94 1013.8

Regional Weather Observation


Bennington Morse State Airport, VT (KDDH)

Partly Cloudy
71.0 F

Schenectady Airport, NY (KSCH)

Partly Cloudy
68.0 F

Albany International Airport, NY (KALB)

Mostly Cloudy
68.0 F

North Adams Harriman-and-West Airport, MA (KAQW)

Mostly Cloudy
72.0 F

Pittsfield Municipal Airport, MA (KPSF)

A Few Clouds
69.0 F

Rutland-Southern Vermont Regional Airport, VT (KRUT)

Light Rain
60.0 F

Advertise Here


Advertise Here